938  
ASUS43 KOAX 231310  
RWRNE  
 
WEATHER ROUNDUP FOR NEBRASKA  
NATIONAL WEATHER SERVICE OMAHA NE  
800 AM CDT MON SEP 23 2019  
 
NOTES: SATELLITE DATA IS BEING USED TO AUGMENT CLOUD COVER ABOVE  
12000 FEET.  
"FAIR" INDICATES FEW OR NO CLOUDS BELOW 12,000 FEET WITH NO  
SIGNIFICANT WEATHER AND/OR S TO VISIBILITY
.  
 
 
NEZ001>004-019>022-054>056-231400-  
NEBRASKA PANHANDLE  
 
CITY SKY/WX TMP DP RH WIND PRES REMARKS
 
SCOTTSBLUFF FAIR 39 37 92 CALM 30.06S  
ALLIANCE FAIR 38 33 82 SW3 30.05R  
CHADRON FAIR 38 36 92 SW3 30.02S  
GORDON FAIR 39 38 94 CALM 30.03S  
KIMBALL FAIR 42 38 87 W8 30.10S  
SIDNEY FAIR 43 37 79 W7 30.08S  

 
 
NEZ057>060-069>072-079>082-231400-  
SOUTHWEST NEBRASKA  
 
CITY SKY/WX TMP DP RH WIND PRES REMARKS
 
NORTH PLATTE FAIR 47 43 86 NW6 30.07R  
IMPERIAL FAIR 48 42 80 W3 30.08R  
LEXINGTON FAIR 51 48 90 CALM 30.06S  
MCCOOK FAIR 54 48 80 W6 30.08R  
OGALLALA FAIR 44 42 95 CALM 30.07S  

 
 
NEZ005>010-023>029-035>040-094-231400-  
NORTH CENTRAL NEBRASKA  
 
CITY SKY/WX TMP DP RH WIND PRES REMARKS
 
VALENTINE FAIR 40 37 89 CALM 30.02S  
AINSWORTH FAIR 46 46 100 CALM 30.03S  
BROKEN BOW FAIR 48 47 96 S3 30.05R  
O'NEILL FAIR 51 50 96 CALM 30.04S  
ORD FOG 47 46 97 CALM 30.05R VSB 3/4  
THEDFORD FAIR 42 41 95 CALM 30.04S  

 
 
NEZ041-046>049-061>064-073>077-083>087-231400-  
SOUTH CENTRAL NEBRASKA  
 
CITY SKY/WX TMP DP RH WIND PRES REMARKS
 
GRAND ISLAND FAIR 55 50 83 CALM 30.07R  
AURORA FAIR 53 52 95 CALM 30.07S  
HASTINGS FAIR 56 51 84 SW3 30.08R  
HEBRON FAIR 55 54 97 CALM 30.08R  
HOLDREGE FAIR 55 51 87 SW5 30.07R  
KEARNEY FAIR 53 49 86 S3 30.08R  
YORK FAIR 54 52 94 CALM 30.07S  

 
 
NEZ011>018-030>034-042>045-231400-  
NORTHEAST NEBRASKA  
 
CITY SKY/WX TMP DP RH WIND PRES REMARKS
 
NORFOLK FAIR 49 48 97 CALM 30.04R  
ALBION FAIR 46 46 97 CALM 30.05S  
BLAIR FAIR 56 55 96 SE3 30.05S  
COLUMBUS FAIR 53 52 96 CALM 30.06R  
FREMONT FAIR 56 56 99 CALM 30.05S  
TEKAMAH MOCLDY 53 53 100 CALM 30.05R  
WAYNE FAIR 46 45 97 CALM 30.05R  

 
 
NEZ050>053-065>068-078-088>093-231400-  
SOUTHEAST NEBRASKA  
 
CITY SKY/WX TMP DP RH WIND PRES REMARKS
 
LINCOLN FAIR 55 53 93 S3 30.08R  
OMAHA EPPLEY FAIR 59 58 96 S7 30.06R  
BEATRICE FAIR 56 55 96 CALM 30.09R  
FALLS CITY FOG 55 54 96 SE6 30.09R VSB 1  
NEBRASKA CITY FAIR 56 56 100 S7 30.09R  
PLATTSMOUTH FAIR 58 57 99 S6 30.08R  

 
 
NEZ044-045-051>053-067-231400-  
OMAHA AREA  
 
CITY SKY/WX TMP DP RH WIND PRES REMARKS
 
OMAHA EPPLEY FAIR 59 58 96 S7 30.06R  
BLAIR FAIR 56 55 96 SE3 30.05S  
FREMONT FAIR 56 56 99 CALM 30.05S  
MILLARD FAIR 57 56 97 SE6 30.07R  
OFFUTT AFB PTCLDY 59 55 88 S7 30.10R  
PLATTSMOUTH FAIR 58 57 99 S6 30.08R  
WAHOO FAIR 53 53 100 S6 30.06R  

 
 
 
CLICK HERE TO GO TO PREVIOUS BULLETINS.

The Nexlab NE Page Main Text Page